Location: Chenereilles
(45.4866°N, 4.0790°E)
Time: 19:26:41
(UTC+00:00)

H-2A R/B - Pass Details

Date: 12 November 2019
Orbit: 733 x 838 km, 98.3° (Epoch: 10 December)

Event Time Altitude Azimuth Distance (km) Brightness Sun altitude
Exits shadow 19:02:21 16° 3° (N) 2,065 4.2 -29.0°
Drops below altitude 10° 19:03:23 10° 359° (N) 2,436 4.6 -29.2°
Sets 19:05:49 0° 353° (N) 3,362 5.5 -29.6°
